2024-105C (59919 NORAD) Tracking and Keplerian Element Data

This shows tracking and keplerian element data for the satellite.

Feedback or suggestion? Click here.




ElementValue
Catalog59919
Name2024-105C
Epoch Orbit124
Epoch Day160.18248074
Epoch Year2024
RAAN166.5725
Inclination97.598
Eccentricity0.0013734
Argument of Perigee258.0719
Mean Anonmoly101.897
Mean Motion15.09526793
Decay Rate7.143E-05
L11 59919U 24105C 24160.18248074 .00007143 00000+0 44828-3 0 9995
L22 59919 97.5980 166.5725 0013734 258.0719 101.8970 15.09526793 1245



Live tracking and technical data element details for 2024-105C (NORAD 59919). 2024-105C can be tracked NOW for your location showing map with azimuth and elevation plus other details from your city location.







IsCatalogInMostPopularTable: catalog: 59919, numindb: 8
Update: records affected: 1



GetName: 59919 2024-105C

Hit Count: updated at: Tue, 16 Jul 2024 02:28:55 GMT